Weather History for Ft Pierce, FL

Change the Weather History Date:

Saturday, December 29, 2012

  Actual Average Record
Temperature  
Mean Temperature 70 °F -  
Max Temperature 84 °F 75 °F 85 °F (1983)
Min Temperature 54 °F 52 °F 26 °F (2010)
Cooling Degree Days 6    
Growing Degree Days 20 (Base 50)    
Moisture  
Dew Point 67 °F    
Average Humidity 81    
Maximum Humidity 94    
Minimum Humidity 56    
Precipitation  
Precipitation 0.00 in - - ()
Sea Level Pressure  
Sea Level Pressure 29.98 in    
Wind  
Wind Speed 10 mph (SW)    
Max Wind Speed 20 mph    
Max Gust Speed 28 mph    
Visibility 10 miles    
Events      
Averages and records for this station are not official NWS values.
T = Trace of Precipitation, MM = Missing Value Source: NWS Daily Summary

Daily Weather History Graph

Daily Weather History Graph

Search for Another Location

Airport:

Trip Planner

Search our weather history database for the weather conditions in past years. The results will help you decide how hot, cold, wet, or windy it might be!

Date:

Astronomy

Dec. 29, 2012 Rise Set
Actual Time 7:11 AM EST 5:36 PM EST
Civil Twilight 6:45 AM EST 6:02 PM EST
Nautical Twilight 6:16 AM EST 6:31 PM EST
Astronomical Twilight 5:47 AM EST 6:59 PM EST
Moon 6:59 PM EST 7:51 AM EST
Length of Visible Light 11h 16m
Length of Day
10h 25m
Full, 98% of the Moon is Illuminated
Dec 29
Full
Jan 4
Last Quarter
Jan 11
New
Jan 18
First Quarter
Jan 26
Full

Hourly Weather History & Observations

Time (EST) Temp. Heat Index Dew Point Humidity Pressure Visibility Wind Dir Wind Speed Gust Speed Precip Events Conditions
12:53 AM 71.1 °F - 69.1 °F 93% 29.96 in 9.0 mi South 6.9 mph - N/A   Overcast
1:53 AM 71.1 °F - 69.1 °F 93% 29.94 in 10.0 mi South 6.9 mph - N/A   Mostly Cloudy
2:53 AM 72.0 °F - 69.1 °F 91% 29.93 in 10.0 mi South 8.1 mph - 0.00 in   Mostly Cloudy
3:53 AM 72.0 °F - 69.1 °F 91% 29.93 in 10.0 mi South 6.9 mph - N/A   Mostly Cloudy
4:53 AM 72.0 °F - 69.1 °F 91% 29.91 in 10.0 mi South 10.4 mph 18.4 mph N/A   Clear
5:53 AM 72.0 °F - 69.1 °F 91% 29.94 in 10.0 mi SSW 8.1 mph - N/A   Partly Cloudy
6:08 AM 71.6 °F - 69.8 °F 94% 29.95 in 10.0 mi SW 8.1 mph - N/A   Mostly Cloudy
6:50 AM 71.6 °F - 69.8 °F 94% 29.97 in 10.0 mi SSW 9.2 mph - N/A   Partly Cloudy
6:53 AM 71.6 °F - 69.8 °F 94% 29.97 in 10.0 mi SSW 6.9 mph - N/A   Partly Cloudy
7:35 AM 73.4 °F - 69.8 °F 88% 29.98 in 9.0 mi SSW 8.1 mph - N/A   Mostly Cloudy
7:53 AM 73.0 °F - 70.0 °F 90% 29.98 in 8.0 mi SSW 5.8 mph - N/A   Overcast
8:53 AM 73.9 °F - 70.0 °F 87% 30.00 in 9.0 mi SSW 15.0 mph 21.9 mph N/A   Overcast
9:00 AM 73.4 °F - 69.8 °F 88% 30.00 in 9.0 mi SSW 11.5 mph 21.9 mph N/A   Mostly Cloudy
9:53 AM 75.0 °F - 71.1 °F 87% 30.01 in 9.0 mi SW 10.4 mph - N/A   Mostly Cloudy
10:53 AM 75.9 °F - 72.0 °F 87% 30.01 in 10.0 mi SW 13.8 mph - N/A   Overcast
11:11 AM 77.0 °F - 71.6 °F 83% 29.99 in 10.0 mi SW 12.7 mph 24.2 mph N/A   Overcast
11:35 AM 78.8 °F - 71.6 °F 78% 29.98 in 10.0 mi SW 19.6 mph 26.5 mph N/A   Mostly Cloudy
11:53 AM 78.1 °F - 71.1 °F 79% 29.97 in 10.0 mi SW 16.1 mph 27.6 mph N/A   Mostly Cloudy
12:41 PM 80.6 °F 84.6 °F 71.6 °F 74% 29.93 in 10.0 mi SW 16.1 mph 23.0 mph N/A   Mostly Cloudy
12:53 PM 82.9 °F 87.0 °F 70.0 °F 65% 29.93 in 10.0 mi SW 16.1 mph 26.5 mph N/A   Mostly Cloudy
1:53 PM 84.0 °F 86.5 °F 66.9 °F 56% 29.91 in 10.0 mi SW 13.8 mph 24.2 mph N/A   Clear
2:53 PM 82.0 °F 84.9 °F 68.0 °F 62% 29.91 in 10.0 mi West 11.5 mph 19.6 mph N/A   Overcast
3:53 PM 81.0 °F 83.8 °F 68.0 °F 65% 29.91 in 10.0 mi West 18.4 mph 23.0 mph N/A   Overcast
4:53 PM 78.1 °F - 68.0 °F 71% 29.92 in 10.0 mi West 12.7 mph - N/A   Scattered Clouds
5:53 PM 75.2 °F - 66.2 °F 73% 29.94 in 10.0 mi West 11.5 mph - N/A   Scattered Clouds
6:53 PM 72.0 °F - 61.0 °F 68% 29.98 in 10.0 mi West 9.2 mph - N/A   Clear
7:53 PM 68.0 °F - 59.0 °F 73% 30.01 in 10.0 mi West 10.4 mph - N/A   Clear
8:53 PM 64.0 °F - 55.9 °F 75% 30.05 in 10.0 mi WNW 9.2 mph - N/A   Clear
9:53 PM 60.1 °F - 51.1 °F 72% 30.08 in 10.0 mi WNW 11.5 mph - N/A   Clear
10:53 PM 57.0 °F - 48.9 °F 74% 30.11 in 10.0 mi West 11.5 mph - N/A   Clear
11:53 PM 54.0 °F - 48.0 °F 80% 30.13 in 10.0 mi WNW 11.5 mph - N/A   Clear